Dades meteomassalio
Diari Summary for Agost 13, 2017 Units:  Metric    English   Both
« Previous Day
Next Day »
Diari Semanal Mensual Anual Personalitzat
  Maxima: Minima: Mijana:
Temperatura: 31.9 °C 14.1 °C 23.5 °C
Rosada: 17.3 °C 7.7 °C 12 °C
Humitat: 69 % 30 % 50 %
Velocitat del vent: 25.9 km/h 0.0 km/h 6.4 km/h
Racha vent: 25.9 km/h - -
Vent:- - SE
Pressio: 1019.2 hPa 1014.1 hPa -
Pluja: 0.0 mm    
Historical Graphs
 
 
Tabular Data for Agost 13, 2017
Time Temperature Dew Point Pressure Wind Wind Speed Wind Gust Humidity Rainfall Rate (Hourly) solar Conditions
00:04 20.1 °C 8.7 °C 1019.2 hPa Calm     48 % 0.0 mm 0.0 W/m2 CLR
00:09 19.8 °C 8.2 °C 1019.2 hPa Calm     47 % 0.0 mm 0.0 W/m2 CLR
00:14 19.7 °C 8.7 °C 1019.2 hPa Calm     49 % 0.0 mm 0.0 W/m2 CLR
00:19 19.6 °C 8.6 °C 1019.2 hPa Calm     49 % 0.0 mm 0.0 W/m2 CLR
00:24 19.4 °C 8.4 °C 1019.2 hPa Calm     49 % 0.0 mm 0.0 W/m2 CLR
00:29 19.2 °C 8.2 °C 1019.2 hPa Calm     49 % 0.0 mm 0.0 W/m2 CLR
00:34 19.1 °C 8.4 °C 1019.2 hPa Calm     50 % 0.0 mm 0.0 W/m2 CLR
00:39 18.9 °C 8.2 °C 1019.2 hPa Calm     50 % 0.0 mm 0.0 W/m2 CLR
00:44 18.7 °C 8.1 °C 1019.2 hPa Calm     50 % 0.0 mm 0.0 W/m2 CLR
00:49 18.6 °C 8.0 °C 1019.2 hPa Calm     50 % 0.0 mm 0.0 W/m2 CLR
00:54 18.5 °C 8.2 °C 1019.2 hPa Calm     51 % 0.0 mm 0.0 W/m2 CLR
00:59 18.5 °C 8.2 °C 1019.2 hPa Calm     51 % 0.0 mm 0.0 W/m2 CLR
01:04 18.6 °C 8.2 °C 1019.2 hPa Calm     51 % 0.0 mm 0.0 W/m2 CLR
01:09 18.5 °C 8.4 °C 1019.2 hPa Calm     52 % 0.0 mm 0.0 W/m2 CLR
01:14 18.3 °C 8.3 °C 1019.2 hPa Calm     52 % 0.0 mm 0.0 W/m2 CLR
01:19 18.2 °C 8.2 °C 1019.2 hPa Calm     52 % 0.0 mm 0.0 W/m2 CLR
01:24 18.0 °C 8.3 °C 1019.2 hPa Calm     53 % 0.0 mm 0.0 W/m2 CLR
01:29 17.9 °C 8.2 °C 1019.2 hPa Calm     53 % 0.0 mm 0.0 W/m2 CLR
01:34 17.8 °C 8.1 °C 1019.2 hPa Calm     53 % 0.0 mm 0.0 W/m2 CLR
01:39 17.7 °C 8.0 °C 1019.2 hPa Calm     53 % 0.0 mm 0.0 W/m2 CLR
01:44 17.6 °C 8.2 °C 1019.2 hPa Calm     54 % 0.0 mm 0.0 W/m2 CLR
01:49 17.5 °C 8.1 °C 1019.2 hPa Calm     54 % 0.0 mm 0.0 W/m2 CLR
01:54 17.4 °C 8.3 °C 1019.2 hPa Calm     55 % 0.0 mm 0.0 W/m2 CLR
01:59 17.2 °C 8.1 °C 1019.2 hPa Calm     55 % 0.0 mm 0.0 W/m2 CLR
02:04 17.1 °C 8.0 °C 1019.2 hPa Calm     55 % 0.0 mm 0.0 W/m2 CLR
02:09 17.0 °C 7.9 °C 1019.2 hPa Calm     55 % 0.0 mm 0.0 W/m2 CLR
02:14 16.8 °C 7.7 °C 1019.2 hPa Calm     55 % 0.0 mm 0.0 W/m2 CLR
02:19 16.7 °C 7.9 °C 1018.8 hPa Calm     56 % 0.0 mm 0.0 W/m2 CLR
02:24 16.7 °C 8.1 °C 1018.8 hPa Calm     57 % 0.0 mm 0.0 W/m2 CLR
02:29 16.6 °C 7.7 °C 1018.8 hPa Calm     56 % 0.0 mm 0.0 W/m2 CLR
02:34 16.5 °C 7.7 °C 1018.8 hPa Calm     56 % 0.0 mm 0.0 W/m2 CLR
02:39 16.4 °C 7.8 °C 1018.8 hPa Calm     57 % 0.0 mm 0.0 W/m2 CLR
02:44 16.3 °C 7.8 °C 1018.8 hPa Calm     57 % 0.0 mm 0.0 W/m2 CLR
02:49 16.2 °C 7.9 °C 1018.8 hPa Calm     58 % 0.0 mm 0.0 W/m2 CLR
02:54 16.2 °C 7.9 °C 1018.8 hPa Calm     58 % 0.0 mm 0.0 W/m2 CLR
02:59 16.1 °C 7.8 °C 1018.8 hPa Calm     58 % 0.0 mm 0.0 W/m2 CLR
03:04 16.1 °C 7.8 °C 1018.8 hPa Calm     58 % 0.0 mm 0.0 W/m2 CLR
03:09 15.9 °C 7.9 °C 1018.8 hPa Calm     59 % 0.0 mm 0.0 W/m2 CLR
03:14 15.8 °C 7.8 °C 1018.8 hPa Calm     59 % 0.0 mm 0.0 W/m2 CLR
03:19 15.7 °C 8.0 °C 1018.8 hPa Calm     60 % 0.0 mm 0.0 W/m2 CLR
03:24 15.7 °C 8.2 °C 1018.8 hPa Calm     61 % 0.0 mm 0.0 W/m2 CLR
03:29 15.7 °C 8.2 °C 1018.8 hPa Calm     61 % 0.0 mm 0.0 W/m2 CLR
03:34 15.8 °C 8.7 °C 1018.8 hPa Calm     63 % 0.0 mm 0.0 W/m2 CLR
03:39 15.8 °C 8.6 °C 1018.8 hPa Calm     62 % 0.0 mm 0.0 W/m2 CLR
03:44 15.9 °C 8.7 °C 1018.8 hPa Calm     62 % 0.0 mm 0.0 W/m2 CLR
03:49 16.1 °C 8.6 °C 1018.8 hPa Calm     61 % 0.0 mm 0.0 W/m2 CLR
03:54 16.1 °C 8.6 °C 1018.8 hPa Calm     61 % 0.0 mm 0.0 W/m2 CLR
03:59 16.1 °C 8.6 °C 1018.8 hPa Calm     61 % 0.0 mm 0.0 W/m2 CLR
04:04 16.0 °C 8.5 °C 1018.8 hPa Calm     61 % 0.0 mm 0.0 W/m2 CLR
04:09 15.9 °C 8.7 °C 1018.8 hPa Calm     62 % 0.0 mm 0.0 W/m2 CLR
04:14 15.8 °C 8.6 °C 1018.8 hPa Calm     62 % 0.0 mm 0.0 W/m2 CLR
04:19 15.8 °C 8.5 °C 1018.8 hPa Calm     62 % 0.0 mm 0.0 W/m2 CLR
04:24 15.7 °C 8.4 °C 1018.8 hPa Calm     62 % 0.0 mm 0.0 W/m2 CLR
04:29 15.6 °C 8.3 °C 1018.8 hPa Calm     62 % 0.0 mm 0.0 W/m2 CLR
04:34 15.4 °C 8.4 °C 1018.8 hPa Calm     63 % 0.0 mm 0.0 W/m2 CLR
04:39 15.4 °C 8.4 °C 1018.8 hPa Calm     63 % 0.0 mm 0.0 W/m2 CLR
04:44 15.4 °C 8.4 °C 1018.8 hPa Calm     63 % 0.0 mm 0.0 W/m2 CLR
04:49 15.6 °C 8.6 °C 1018.8 hPa Calm     63 % 0.0 mm 0.0 W/m2 CLR
04:54 15.7 °C 8.4 °C 1018.8 hPa Calm     62 % 0.0 mm 0.0 W/m2 CLR
04:59 15.6 °C 8.3 °C 1018.8 hPa Calm     62 % 0.0 mm 0.0 W/m2 CLR
05:04 15.4 °C 8.2 °C 1018.8 hPa Calm     62 % 0.0 mm 0.0 W/m2 CLR
05:09 15.3 °C 8.1 °C 1018.8 hPa Calm     62 % 0.0 mm 0.0 W/m2 CLR
05:16 15.2 °C 8.0 °C 1018.8 hPa Calm     62 % 0.0 mm 0.0 W/m2 CLR
05:19 15.3 °C 8.1 °C 1018.8 hPa Calm     62 % 0.0 mm 0.0 W/m2 CLR
05:21 15.3 °C 8.1 °C 1018.8 hPa Calm     62 % 0.0 mm 0.0 W/m2 CLR
05:23 15.3 °C 8.1 °C 1018.8 hPa Calm     62 % 0.0 mm 0.0 W/m2 CLR
05:26 15.3 °C 8.1 °C 1018.8 hPa Calm     62 % 0.0 mm 0.0 W/m2 CLR
05:27 15.3 °C 8.1 °C 1018.8 hPa Calm     62 % 0.0 mm 0.0 W/m2 CLR
05:29 15.3 °C 8.1 °C 1018.8 hPa Calm     62 % 0.0 mm 0.0 W/m2 CLR
05:32 15.3 °C 8.1 °C 1018.8 hPa Calm     62 % 0.0 mm 0.0 W/m2 CLR
05:37 15.4 °C 8.2 °C 1018.8 hPa Calm     62 % 0.0 mm 0.0 W/m2 CLR
05:42 15.4 °C 8.2 °C 1018.8 hPa Calm     62 % 0.0 mm 0.0 W/m2 CLR
05:47 15.4 °C 8.2 °C 1018.8 hPa Calm     62 % 0.0 mm 0.0 W/m2 CLR
05:52 15.4 °C 8.2 °C 1018.8 hPa Calm     62 % 0.0 mm 0.0 W/m2 CLR
05:57 15.3 °C 8.1 °C 1018.8 hPa Calm     62 % 0.0 mm 0.0 W/m2 CLR
06:02 15.2 °C 7.9 °C 1018.8 hPa Calm     62 % 0.0 mm 0.0 W/m2 CLR
06:03 15.2 °C 7.9 °C 1018.8 hPa Calm     62 % 0.0 mm 0.0 W/m2 CLR
06:08 15.1 °C 8.1 °C 1018.8 hPa Calm     63 % 0.0 mm 0.0 W/m2 CLR
06:13 14.9 °C 7.9 °C 1018.8 hPa Calm     63 % 0.0 mm 0.0 W/m2 CLR
06:18 14.8 °C 7.8 °C 1018.8 hPa Calm     63 % 0.0 mm 0.0 W/m2 CLR
06:23 14.8 °C 7.8 °C 1018.8 hPa Calm     63 % 0.0 mm 0.0 W/m2 CLR
06:28 14.6 °C 7.9 °C 1018.8 hPa Calm     64 % 0.0 mm 0.0 W/m2 CLR
06:33 14.6 °C 7.8 °C 1018.8 hPa Calm     64 % 0.0 mm 0.0 W/m2 CLR
06:38 14.4 °C 7.9 °C 1018.8 hPa Calm     65 % 0.0 mm 0.0 W/m2 CLR
06:43 14.2 °C 7.7 °C 1018.8 hPa Calm     65 % 0.0 mm 0.0 W/m2 CLR
06:48 14.2 °C 8.1 °C 1018.8 hPa Calm     67 % 0.0 mm 0.0 W/m2 CLR
06:53 14.2 °C 8.2 °C 1018.8 hPa Calm     67 % 0.0 mm 0.0 W/m2 CLR
06:58 14.2 °C 8.2 °C 1018.8 hPa Calm     67 % 0.0 mm 0.0 W/m2 CLR
07:03 14.2 °C 8.3 °C 1019.2 hPa Calm     68 % 0.0 mm 0.0 W/m2 OVC
07:08 14.2 °C 8.3 °C 1019.2 hPa Calm     68 % 0.0 mm 0.0 W/m2 OVC
07:13 14.2 °C 8.6 °C 1019.2 hPa Calm     69 % 0.0 mm 5.0 W/m2 OVC
07:18 14.2 °C 8.3 °C 1019.2 hPa Calm     68 % 0.0 mm 9.0 W/m2 BKN
07:23 14.1 °C 8.3 °C 1018.8 hPa Calm     68 % 0.0 mm 12.0 W/m2 BKN
07:28 14.1 °C 8.5 °C 1019.2 hPa Calm     69 % 0.0 mm 14.0 W/m2 BKN
07:33 14.2 °C 8.6 °C 1019.2 hPa Calm     69 % 0.0 mm 16.0 W/m2 BKN
07:38 14.3 °C 8.7 °C 1019.2 hPa Calm     69 % 0.0 mm 21.0 W/m2 BKN
07:43 14.5 °C 8.9 °C 1019.2 hPa Calm     69 % 0.0 mm 28.0 W/m2 BKN
07:48 14.7 °C 9.1 °C 1019.2 hPa Calm     69 % 0.0 mm 39.0 W/m2 BKN
07:53 14.9 °C 9.2 °C 1019.2 hPa Calm     69 % 0.0 mm 42.0 W/m2 BKN
07:58 15.2 °C 9.3 °C 1019.2 hPa Calm     68 % 0.0 mm 54.0 W/m2 SCT
08:03 15.5 °C 9.6 °C 1019.2 hPa Calm     68 % 0.0 mm 76.0 W/m2 FEW
08:08 15.7 °C 9.8 °C 1019.2 hPa Calm     68 % 0.0 mm 77.0 W/m2 FEW
08:13 15.9 °C 9.8 °C 1019.2 hPa Calm     67 % 0.0 mm 111.0 W/m2 CLR
08:18 16.2 °C 10.1 °C 1019.2 hPa Calm     67 % 0.0 mm 127.0 W/m2 CLR
08:23 16.5 °C 10.1 °C 1019.2 hPa Calm     66 % 0.0 mm 144.0 W/m2 CLR
08:28 16.9 °C 10.3 °C 1019.2 hPa Calm     65 % 0.0 mm 160.0 W/m2 CLR
08:33 17.4 °C 10.6 °C 1019.2 hPa Calm     64 % 0.0 mm 185.0 W/m2 CLR
08:38 17.9 °C 10.8 °C 1019.2 hPa Calm     63 % 0.0 mm 200.0 W/m2 CLR
08:43 18.4 °C 11.0 °C 1019.2 hPa Calm     62 % 0.0 mm 218.0 W/m2 CLR
08:48 18.7 °C 11.0 °C 1019.2 hPa Calm     61 % 0.0 mm 236.0 W/m2 CLR
08:53 18.8 °C 11.2 °C 1018.8 hPa Calm     61 % 0.0 mm 248.0 W/m2 CLR
08:58 19.1 °C 11.4 °C 1018.8 hPa Calm     61 % 0.0 mm 258.0 W/m2 CLR
09:03 19.5 °C 11.8 °C 1019.2 hPa Calm     61 % 0.0 mm 297.0 W/m2 CLR
09:08 20.3 °C 12.0 °C 1019.2 hPa Calm     59 % 0.0 mm 315.0 W/m2 CLR
09:13 20.9 °C 12.1 °C 1019.2 hPa Calm     57 % 0.0 mm 341.0 W/m2 CLR
09:18 21.3 °C 11.9 °C 1018.8 hPa Calm     55 % 0.0 mm 362.0 W/m2 CLR
09:23 21.9 °C 12.4 °C 1018.8 hPa Calm     55 % 0.0 mm 381.0 W/m2 CLR
09:28 22.4 °C 12.1 °C 1018.8 hPa Calm     52 % 0.0 mm 227.0 W/m2 CLR
09:33 22.8 °C 11.6 °C 1018.8 hPa Calm     49 % 0.0 mm 213.0 W/m2 CLR
09:38 23.1 °C 11.1 °C 1018.8 hPa NW 8.0 km/h 8.0 km/h 47 % 0.0 mm 424.0 W/m2 CLR
09:43 23.2 °C 11.2 °C 1018.8 hPa West 7.4 km/h 7.4 km/h 47 % 0.0 mm 462.0 W/m2 CLR
09:48 23.3 °C 11.3 °C 1018.8 hPa NW 6.4 km/h 6.4 km/h 47 % 0.0 mm 485.0 W/m2 CLR
09:53 23.6 °C 11.3 °C 1018.8 hPa WNW 5.6 km/h 5.6 km/h 46 % 0.0 mm 473.0 W/m2 CLR
09:58 23.7 °C 11.4 °C 1018.8 hPa WNW 11.1 km/h 11.1 km/h 46 % 0.0 mm 345.0 W/m2 CLR
10:03 23.7 °C 11.1 °C 1019.2 hPa WNW 5.6 km/h 5.6 km/h 45 % 0.0 mm 494.0 W/m2 CLR
10:08 23.7 °C 11.1 °C 1019.2 hPa NW 9.3 km/h 9.3 km/h 45 % 0.0 mm 367.0 W/m2 CLR
10:13 23.8 °C 11.1 °C 1019.2 hPa WNW 9.3 km/h 9.3 km/h 45 % 0.0 mm 515.0 W/m2 CLR
10:18 23.9 °C 11.3 °C 1019.2 hPa WSW 9.7 km/h 9.7 km/h 45 % 0.0 mm 541.0 W/m2 CLR
10:23 24.1 °C 11.1 °C 1019.2 hPa SW 9.3 km/h 9.3 km/h 44 % 0.0 mm 531.0 W/m2 CLR
10:28 24.3 °C 11.3 °C 1019.2 hPa WNW 9.3 km/h 9.3 km/h 44 % 0.0 mm 589.0 W/m2 CLR
10:33 24.4 °C 11.3 °C 1019.2 hPa West 6.4 km/h 6.4 km/h 44 % 0.0 mm 584.0 W/m2 CLR
10:38 24.5 °C 11.1 °C 1019.2 hPa West 5.6 km/h 5.6 km/h 43 % 0.0 mm 563.0 W/m2 CLR
10:43 24.7 °C 11.6 °C 1019.2 hPa NW 14.8 km/h 14.8 km/h 44 % 0.0 mm 608.0 W/m2 CLR
10:48 24.8 °C 11.3 °C 1019.2 hPa NNW 11.1 km/h 11.1 km/h 43 % 0.0 mm 501.0 W/m2 CLR
10:53 24.8 °C 11.3 °C 1019.2 hPa NNE 8.0 km/h 8.0 km/h 43 % 0.0 mm 596.0 W/m2 CLR
10:58 25.2 °C 11.3 °C 1019.2 hPa West 5.6 km/h 5.6 km/h 42 % 0.0 mm 642.0 W/m2 CLR
11:03 25.3 °C 11.5 °C 1019.2 hPa Calm     42 % 0.0 mm 643.0 W/m2 CLR
11:08 25.7 °C 11.4 °C 1019.2 hPa NNW 11.1 km/h 11.1 km/h 41 % 0.0 mm 642.0 W/m2 CLR
11:13 25.7 °C 11.5 °C 1018.8 hPa NNW 4.8 km/h 4.8 km/h 41 % 0.0 mm 673.0 W/m2 CLR
11:18 25.9 °C 11.3 °C 1018.8 hPa Calm     40 % 0.0 mm 693.0 W/m2 CLR
11:23 26.2 °C 11.5 °C 1018.8 hPa North 7.4 km/h 7.4 km/h 40 % 0.0 mm 719.0 W/m2 CLR
11:28 26.3 °C 11.6 °C 1018.8 hPa North 9.3 km/h 9.3 km/h 40 % 0.0 mm 700.0 W/m2 CLR
11:33 26.1 °C 11.1 °C 1018.8 hPa NNE 1.9 km/h   39 % 0.0 mm 719.0 W/m2 CLR
11:38 26.1 °C 11.1 °C 1018.8 hPa Calm     39 % 0.0 mm 731.0 W/m2 CLR
11:43 26.3 °C 11.3 °C 1018.8 hPa Calm     39 % 0.0 mm 693.0 W/m2 CLR
11:48 26.7 °C 11.6 °C 1018.8 hPa ENE 5.6 km/h   39 % 0.0 mm 766.0 W/m2 CLR
11:53 27.2 °C 11.7 °C 1018.8 hPa Calm     38 % 0.0 mm 708.0 W/m2 CLR
11:59 27.7 °C 11.7 °C 1018.8 hPa Calm     37 % 0.0 mm 661.0 W/m2 CLR
12:04 27.8 °C 11.8 °C 1018.5 hPa East 1.6 km/h 1.6 km/h 37 % 0.0 mm 800.0 W/m2 CLR
12:09 27.7 °C 11.7 °C 1018.5 hPa SE 3.7 km/h 3.7 km/h 37 % 0.0 mm 791.0 W/m2 CLR
12:14 27.5 °C 11.5 °C 1018.5 hPa Calm     37 % 0.0 mm 756.0 W/m2 CLR
12:19 27.7 °C 12.1 °C 1018.5 hPa ENE 7.4 km/h   38 % 0.0 mm 789.0 W/m2 CLR
12:24 27.9 °C 11.8 °C 1018.5 hPa NNE 9.3 km/h   37 % 0.0 mm 788.0 W/m2 CLR
12:29 28.0 °C 11.9 °C 1018.5 hPa ENE 11.1 km/h 11.1 km/h 37 % 0.0 mm 791.0 W/m2 CLR
12:34 28.0 °C 11.9 °C 1018.2 hPa ENE 5.6 km/h   37 % 0.0 mm 830.0 W/m2 CLR
12:39 28.1 °C 11.6 °C 1018.2 hPa East 3.7 km/h 3.7 km/h 36 % 0.0 mm 831.0 W/m2 CLR
12:44 27.8 °C 11.4 °C 1018.2 hPa Calm     36 % 0.0 mm 831.0 W/m2 CLR
12:49 28.0 °C 11.1 °C 1018.2 hPa Calm     35 % 0.0 mm 791.0 W/m2 CLR
12:54 28.4 °C 11.0 °C 1018.2 hPa Calm     34 % 0.0 mm 765.0 W/m2 CLR
12:59 28.5 °C 11.1 °C 1018.2 hPa Calm     34 % 0.0 mm 853.0 W/m2 CLR
13:04 28.6 °C 10.7 °C 1018.2 hPa West 1.9 km/h 1.9 km/h 33 % 0.0 mm 828.0 W/m2 CLR
13:09 28.6 °C 11.2 °C 1017.8 hPa Calm     34 % 0.0 mm 868.0 W/m2 CLR
13:14 28.8 °C 11.3 °C 1017.8 hPa East 13.0 km/h 13.0 km/h 34 % 0.0 mm 872.0 W/m2 CLR
13:19 28.7 °C 11.7 °C 1017.8 hPa NE 1.9 km/h   35 % 0.0 mm 874.0 W/m2 CLR
13:24 28.9 °C 11.9 °C 1017.8 hPa NNE 9.3 km/h 10.9 km/h 35 % 0.0 mm 877.0 W/m2 CLR
13:29 28.9 °C 11.5 °C 1017.5 hPa NNE 5.6 km/h 5.6 km/h 34 % 0.0 mm 879.0 W/m2 CLR
13:34 28.9 °C 11.9 °C 1017.5 hPa SW 5.6 km/h 5.6 km/h 35 % 0.0 mm 881.0 W/m2 CLR
13:39 29.1 °C 12.1 °C 1017.5 hPa NE 9.7 km/h 9.7 km/h 35 % 0.0 mm 886.0 W/m2 CLR
13:44 29.3 °C 11.8 °C 1017.5 hPa NNE 5.6 km/h 5.6 km/h 34 % 0.0 mm 884.0 W/m2 CLR
13:49 29.4 °C 11.9 °C 1017.2 hPa NE 9.7 km/h 9.7 km/h 34 % 0.0 mm 888.0 W/m2 CLR
13:54 29.7 °C 12.2 °C 1017.2 hPa NE 1.9 km/h 1.9 km/h 34 % 0.0 mm 889.0 W/m2 CLR
13:59 30.0 °C 11.9 °C 1017.2 hPa Calm     33 % 0.0 mm 886.0 W/m2 CLR
14:04 30.1 °C 12.0 °C 1017.2 hPa NNE 8.0 km/h 8.2 km/h 33 % 0.0 mm 891.0 W/m2 CLR
14:09 30.1 °C 12.1 °C 1016.8 hPa North 9.3 km/h 9.3 km/h 33 % 0.0 mm 888.0 W/m2 CLR
14:14 30.4 °C 11.8 °C 1016.8 hPa ENE 18.5 km/h 18.5 km/h 32 % 0.0 mm 889.0 W/m2 CLR
14:19 30.3 °C 12.2 °C 1016.8 hPa ENE 5.6 km/h 6.4 km/h 33 % 0.0 mm 888.0 W/m2 CLR
14:24 30.4 °C 12.3 °C 1016.8 hPa North 5.6 km/h 5.6 km/h 33 % 0.0 mm 886.0 W/m2 CLR
14:29 30.7 °C 12.1 °C 1016.8 hPa ENE 18.5 km/h 18.5 km/h 32 % 0.0 mm 888.0 W/m2 CLR
14:34 30.8 °C 12.2 °C 1016.5 hPa ENE 9.3 km/h 9.3 km/h 32 % 0.0 mm 882.0 W/m2 CLR
14:39 30.7 °C 11.6 °C 1016.5 hPa ENE 13.0 km/h 13.0 km/h 31 % 0.0 mm 889.0 W/m2 CLR
14:44 30.5 °C 11.9 °C 1016.5 hPa NW 5.6 km/h 5.6 km/h 32 % 0.0 mm 888.0 W/m2 CLR
14:49 31.0 °C 11.4 °C 1016.5 hPa East 11.1 km/h 11.1 km/h 30 % 0.0 mm 798.0 W/m2 CLR
14:54 31.2 °C 11.6 °C 1016.5 hPa NNE 9.3 km/h 9.3 km/h 30 % 0.0 mm 882.0 W/m2 CLR
14:59 31.4 °C 12.2 °C 1016.1 hPa Calm     31 % 0.0 mm 877.0 W/m2 CLR
15:04 31.6 °C 11.9 °C 1016.1 hPa East 14.8 km/h 14.8 km/h 30 % 0.0 mm 870.0 W/m2 CLR
15:09 31.7 °C 12.0 °C 1016.1 hPa ENE 13.0 km/h 13.0 km/h 30 % 0.0 mm 865.0 W/m2 CLR
15:14 31.8 °C 12.1 °C 1016.1 hPa East 11.1 km/h 11.1 km/h 30 % 0.0 mm 863.0 W/m2 CLR
15:19 31.8 °C 12.1 °C 1016.1 hPa East 20.4 km/h 20.4 km/h 30 % 0.0 mm 858.0 W/m2 CLR
15:24 31.3 °C 12.1 °C 1015.8 hPa ESE 12.9 km/h 12.9 km/h 31 % 0.0 mm 856.0 W/m2 CLR
15:29 31.3 °C 12.7 °C 1015.8 hPa ENE 13.0 km/h 13.0 km/h 32 % 0.0 mm 775.0 W/m2 CLR
15:34 31.2 °C 12.6 °C 1015.8 hPa Calm     32 % 0.0 mm 682.0 W/m2 CLR
15:39 31.6 °C 12.8 °C 1015.8 hPa ESE 7.4 km/h 7.4 km/h 32 % 0.0 mm 802.0 W/m2 CLR
15:44 31.4 °C 12.2 °C 1015.8 hPa Calm     31 % 0.0 mm 798.0 W/m2 CLR
15:49 31.7 °C 14.4 °C 1015.8 hPa SE 22.2 km/h 22.2 km/h 35 % 0.0 mm 812.0 W/m2 CLR
15:54 31.8 °C 14.4 °C 1015.5 hPa ESE 3.2 km/h 3.2 km/h 35 % 0.0 mm 800.0 W/m2 CLR
15:59 31.9 °C 14.1 °C 1015.5 hPa East 13.0 km/h 13.0 km/h 34 % 0.0 mm 789.0 W/m2 CLR
16:04 31.9 °C 13.2 °C 1015.5 hPa ESE 14.8 km/h 14.8 km/h 32 % 0.0 mm 779.0 W/m2 CLR
16:09 31.7 °C 14.3 °C 1015.5 hPa ESE 9.3 km/h 9.3 km/h 35 % 0.0 mm 765.0 W/m2 CLR
16:14 31.6 °C 15.2 °C 1015.5 hPa ESE 13.0 km/h 13.0 km/h 37 % 0.0 mm 752.0 W/m2 CLR
16:19 31.8 °C 15.3 °C 1015.1 hPa NE 9.3 km/h 9.3 km/h 37 % 0.0 mm 744.0 W/m2 CLR
16:24 31.8 °C 15.7 °C 1015.1 hPa ESE 16.7 km/h 16.7 km/h 38 % 0.0 mm 737.0 W/m2 CLR
16:29 31.6 °C 16.3 °C 1015.1 hPa East 20.4 km/h 20.4 km/h 40 % 0.0 mm 714.0 W/m2 CLR
16:34 31.3 °C 16.1 °C 1015.1 hPa East 22.2 km/h 22.2 km/h 40 % 0.0 mm 707.0 W/m2 CLR
16:39 31.4 °C 16.6 °C 1015.1 hPa East 20.4 km/h 20.4 km/h 41 % 0.0 mm 698.0 W/m2 CLR
16:44 31.4 °C 16.6 °C 1015.1 hPa East 14.8 km/h 14.8 km/h 41 % 0.0 mm 687.0 W/m2 CLR
16:49 31.4 °C 16.9 °C 1014.8 hPa ENE 17.7 km/h 17.7 km/h 42 % 0.0 mm 668.0 W/m2 CLR
16:54 31.4 °C 16.2 °C 1014.8 hPa ESE 18.5 km/h 18.5 km/h 40 % 0.0 mm 661.0 W/m2 CLR
16:59 31.5 °C 16.7 °C 1014.8 hPa East 14.8 km/h 14.8 km/h 41 % 0.0 mm 647.0 W/m2 CLR
17:04 31.4 °C 16.9 °C 1014.8 hPa East 17.7 km/h 17.7 km/h 42 % 0.0 mm 633.0 W/m2 CLR
17:09 31.1 °C 17.0 °C 1014.8 hPa East 16.7 km/h 16.7 km/h 43 % 0.0 mm 624.0 W/m2 CLR
17:14 31.2 °C 17.1 °C 1014.8 hPa ESE 16.7 km/h 16.7 km/h 43 % 0.0 mm 608.0 W/m2 CLR
17:19 31.4 °C 17.0 °C 1014.8 hPa ESE 16.7 km/h 16.7 km/h 42 % 0.0 mm 594.0 W/m2 CLR
17:24 31.3 °C 16.9 °C 1014.8 hPa SE 16.7 km/h 16.7 km/h 42 % 0.0 mm 584.0 W/m2 CLR
17:29 31.3 °C 16.4 °C 1014.8 hPa SE 18.5 km/h 18.5 km/h 41 % 0.0 mm 570.0 W/m2 CLR
17:34 31.1 °C 16.7 °C 1014.8 hPa SE 16.7 km/h 16.7 km/h 42 % 0.0 mm 552.0 W/m2 CLR
17:39 31.2 °C 16.7 °C 1014.4 hPa ESE 16.7 km/h 16.7 km/h 42 % 0.0 mm 541.0 W/m2 CLR
17:44 31.1 °C 16.6 °C 1014.8 hPa ESE 18.5 km/h 18.5 km/h 42 % 0.0 mm 531.0 W/m2 CLR
17:49 31.0 °C 16.2 °C 1014.4 hPa ESE 14.8 km/h 14.8 km/h 41 % 0.0 mm 515.0 W/m2 CLR
17:54 31.1 °C 16.7 °C 1014.4 hPa SE 22.2 km/h 22.2 km/h 42 % 0.0 mm 501.0 W/m2 CLR
17:59 30.9 °C 16.8 °C 1014.4 hPa SSE 18.5 km/h 18.5 km/h 43 % 0.0 mm 478.0 W/m2 CLR
18:04 30.9 °C 16.8 °C 1014.4 hPa ESE 18.5 km/h 18.5 km/h 43 % 0.0 mm 462.0 W/m2 CLR
18:09 31.0 °C 17.3 °C 1014.4 hPa SE 14.8 km/h 14.8 km/h 44 % 0.0 mm 452.0 W/m2 CLR
18:14 30.8 °C 17.1 °C 1014.4 hPa ESE 25.9 km/h 25.9 km/h 44 % 0.0 mm 438.0 W/m2 CLR
18:19 30.5 °C 17.2 °C 1014.4 hPa SSE 18.5 km/h 18.5 km/h 45 % 0.0 mm 418.0 W/m2 CLR
18:20 30.5 °C 17.2 °C 1014.4 hPa SE 22.2 km/h 22.2 km/h 45 % 0.0 mm 413.0 W/m2 CLR
18:25 30.6 °C 16.9 °C 1014.4 hPa SSE 18.5 km/h 18.5 km/h 44 % 0.0 mm 397.0 W/m2 CLR
18:30 30.5 °C 16.9 °C 1014.4 hPa SE 20.4 km/h 20.4 km/h 44 % 0.0 mm 385.0 W/m2 CLR
18:35 30.4 °C 16.8 °C 1014.1 hPa ESE 25.9 km/h 25.9 km/h 44 % 0.0 mm 373.0 W/m2 CLR
18:40 30.3 °C 16.7 °C 1014.4 hPa ESE 17.7 km/h 17.7 km/h 44 % 0.0 mm 357.0 W/m2 CLR
18:45 30.1 °C 16.8 °C 1014.4 hPa East 24.1 km/h 24.1 km/h 45 % 0.0 mm 338.0 W/m2 CLR
18:50 29.9 °C 16.7 °C 1014.1 hPa SE 22.2 km/h 22.2 km/h 45 % 0.0 mm 325.0 W/m2 CLR
18:55 29.7 °C 16.5 °C 1014.1 hPa SE 24.1 km/h 24.1 km/h 45 % 0.0 mm 309.0 W/m2 CLR
19:00 29.6 °C 16.4 °C 1014.1 hPa SE 25.7 km/h 25.7 km/h 45 % 0.0 mm 292.0 W/m2 CLR
19:05 29.6 °C 16.4 °C 1014.4 hPa East 20.4 km/h 20.4 km/h 45 % 0.0 mm 278.0 W/m2 CLR
19:10 29.6 °C 16.4 °C 1014.4 hPa SE 24.1 km/h 24.1 km/h 45 % 0.0 mm 262.0 W/m2 CLR
19:15 29.5 °C 16.3 °C 1014.4 hPa SE 20.4 km/h 20.4 km/h 45 % 0.0 mm 243.0 W/m2 CLR
19:21 29.4 °C 16.2 °C 1014.4 hPa East 20.4 km/h 20.4 km/h 45 % 0.0 mm 227.0 W/m2 CLR
19:25 29.3 °C 16.1 °C 1014.4 hPa ESE 25.9 km/h 25.9 km/h 45 % 0.0 mm 209.0 W/m2 CLR
19:31 29.2 °C 16.1 °C 1014.4 hPa East 16.7 km/h 16.7 km/h 45 % 0.0 mm 193.0 W/m2 CLR
19:36 29.2 °C 15.7 °C 1014.1 hPa SE 24.1 km/h 24.1 km/h 44 % 0.0 mm 179.0 W/m2 CLR
19:37 29.1 °C 15.9 °C 1014.1 hPa SE 24.1 km/h 24.1 km/h 45 % 0.0 mm 178.0 W/m2 CLR
19:42 29.0 °C 15.5 °C 1014.1 hPa ESE 24.1 km/h 24.1 km/h 44 % 0.0 mm 156.0 W/m2 CLR
19:47 29.0 °C 14.8 °C 1014.1 hPa SE 19.3 km/h 19.3 km/h 42 % 0.0 mm 141.0 W/m2 CLR
19:52 28.9 °C 15.1 °C 1014.1 hPa SE 16.7 km/h 16.7 km/h 43 % 0.0 mm 125.0 W/m2 CLR
19:57 28.9 °C 15.4 °C 1014.1 hPa SSE 18.5 km/h 18.5 km/h 44 % 0.0 mm 109.0 W/m2 CLR
20:02 28.8 °C 15.0 °C 1014.4 hPa SE 18.5 km/h 18.5 km/h 43 % 0.0 mm 91.0 W/m2 CLR
20:07 28.7 °C 14.9 °C 1014.4 hPa ESE 18.5 km/h 18.5 km/h 43 % 0.0 mm 77.0 W/m2 FEW
20:12 28.7 °C 15.2 °C 1014.4 hPa SSE 14.8 km/h 14.8 km/h 44 % 0.0 mm 63.0 W/m2 SCT
20:17 28.6 °C 15.5 °C 1014.8 hPa SE 16.7 km/h 16.7 km/h 45 % 0.0 mm 54.0 W/m2 SCT
20:22 28.5 °C 15.4 °C 1014.8 hPa SE 18.5 km/h 18.5 km/h 45 % 0.0 mm 46.0 W/m2 SCT
20:27 28.4 °C 15.7 °C 1014.8 hPa SE 18.5 km/h 18.5 km/h 46 % 0.0 mm 33.0 W/m2 BKN
20:32 28.2 °C 15.5 °C 1014.4 hPa SE 16.7 km/h 16.7 km/h 46 % 0.0 mm 25.0 W/m2 BKN
20:37 28.1 °C 15.7 °C 1014.8 hPa SE 16.1 km/h 16.1 km/h 47 % 0.0 mm 19.0 W/m2 BKN
20:42 27.9 °C 15.6 °C 1014.8 hPa SSE 16.7 km/h 16.7 km/h 47 % 0.0 mm 14.0 W/m2 BKN
20:47 27.8 °C 15.8 °C 1014.8 hPa SSE 14.8 km/h 14.8 km/h 48 % 0.0 mm 11.0 W/m2 BKN
20:52 27.7 °C 16.1 °C 1014.8 hPa SE 14.8 km/h 14.8 km/h 49 % 0.0 mm 11.0 W/m2 BKN
20:57 27.6 °C 16.2 °C 1014.8 hPa South 16.7 km/h 16.7 km/h 50 % 0.0 mm 12.0 W/m2 BKN
21:02 27.6 °C 16.5 °C 1015.1 hPa South 13.0 km/h 13.0 km/h 51 % 0.0 mm 11.0 W/m2 BKN
21:07 27.3 °C 16.6 °C 1014.8 hPa South 16.7 km/h 16.7 km/h 52 % 0.0 mm 0.0 W/m2 OVC
21:12 27.2 °C 16.5 °C 1014.8 hPa South 14.8 km/h 14.8 km/h 52 % 0.0 mm 0.0 W/m2 CLR
21:17 27.1 °C 16.7 °C 1014.8 hPa SSE 16.7 km/h 16.7 km/h 53 % 0.0 mm 0.0 W/m2 CLR
21:22 26.9 °C 16.3 °C 1014.8 hPa SSE 20.4 km/h 20.4 km/h 52 % 0.0 mm 0.0 W/m2 CLR
21:27 26.8 °C 16.4 °C 1014.8 hPa SSE 11.1 km/h 11.1 km/h 53 % 0.0 mm 0.0 W/m2 CLR
21:32 26.7 °C 16.3 °C 1014.8 hPa SSE 14.8 km/h 14.8 km/h 53 % 0.0 mm 0.0 W/m2 CLR
21:37 26.6 °C 16.2 °C 1014.8 hPa SSE 14.8 km/h 14.8 km/h 53 % 0.0 mm 0.0 W/m2 CLR
21:42 26.5 °C 16.4 °C 1014.8 hPa SSE 16.7 km/h 16.7 km/h 54 % 0.0 mm 0.0 W/m2 CLR
21:47 26.4 °C 16.3 °C 1014.8 hPa SSE 18.5 km/h 18.5 km/h 54 % 0.0 mm 0.0 W/m2 CLR
21:52 26.3 °C 16.3 °C 1014.8 hPa South 9.3 km/h 9.3 km/h 54 % 0.0 mm 0.0 W/m2 CLR
21:57 26.3 °C 16.2 °C 1014.8 hPa SSE 14.8 km/h 14.8 km/h 54 % 0.0 mm 0.0 W/m2 CLR
22:02 26.2 °C 16.4 °C 1015.1 hPa SSE 9.3 km/h 9.3 km/h 55 % 0.0 mm 0.0 W/m2 CLR
22:07 26.1 °C 16.4 °C 1015.1 hPa South 9.3 km/h 9.3 km/h 55 % 0.0 mm 0.0 W/m2 CLR
22:12 26.0 °C 16.3 °C 1015.1 hPa SSE 7.4 km/h 7.4 km/h 55 % 0.0 mm 0.0 W/m2 CLR
22:17 26.0 °C 16.3 °C 1015.5 hPa Calm     55 % 0.0 mm 0.0 W/m2 CLR
22:22 25.9 °C 15.9 °C 1015.5 hPa Calm     54 % 0.0 mm 0.0 W/m2 CLR
22:23 25.9 °C 16.2 °C 1015.5 hPa Calm     55 % 0.0 mm 0.0 W/m2 CLR
22:28 25.9 °C 16.2 °C 1015.5 hPa Calm     55 % 0.0 mm 0.0 W/m2 CLR
22:33 25.7 °C 15.7 °C 1015.5 hPa Calm     54 % 0.0 mm 0.0 W/m2 CLR
22:38 25.6 °C 15.9 °C 1015.5 hPa Calm     55 % 0.0 mm 0.0 W/m2 CLR
22:43 25.5 °C 15.8 °C 1015.8 hPa Calm     55 % 0.0 mm 0.0 W/m2 CLR
22:48 25.4 °C 15.7 °C 1015.8 hPa Calm     55 % 0.0 mm 0.0 W/m2 CLR
22:53 25.3 °C 15.9 °C 1015.8 hPa Calm     56 % 0.0 mm 0.0 W/m2 CLR
22:58 25.2 °C 15.8 °C 1015.8 hPa Calm     56 % 0.0 mm 0.0 W/m2 CLR
23:03 25.0 °C 15.6 °C 1015.5 hPa Calm     56 % 0.0 mm 0.0 W/m2 CLR
23:08 24.8 °C 15.7 °C 1015.8 hPa Calm     57 % 0.0 mm 0.0 W/m2 CLR
23:13 24.6 °C 15.5 °C 1015.8 hPa Calm     57 % 0.0 mm 0.0 W/m2 CLR
23:18 24.4 °C 15.6 °C 1015.8 hPa Calm     58 % 0.0 mm 0.0 W/m2 CLR
23:23 24.1 °C 15.6 °C 1015.8 hPa Calm     59 % 0.0 mm 0.0 W/m2 CLR
23:28 23.9 °C 15.7 °C 1015.8 hPa Calm     60 % 0.0 mm 0.0 W/m2 CLR
23:33 23.7 °C 15.8 °C 1015.8 hPa Calm     61 % 0.0 mm 0.0 W/m2 CLR
23:38 23.5 °C 15.6 °C 1015.8 hPa Calm     61 % 0.0 mm 0.0 W/m2 CLR
23:43 23.3 °C 15.4 °C 1015.8 hPa Calm     61 % 0.0 mm 0.0 W/m2 CLR
23:48 23.2 °C 15.5 °C 1015.8 hPa Calm     62 % 0.0 mm 0.0 W/m2 CLR
23:53 23.1 °C 15.6 °C 1015.8 hPa Calm     63 % 0.0 mm 0.0 W/m2 CLR
23:58 22.9 °C 15.4 °C 1015.8 hPa Calm     63 % 0.0 mm 0.0 W/m2 CLR
Lo Temps de Massalio
Compliments of Weather Underground - 1.25 mb